SKW876 KRIC-KORD

Flight info

Callsign SKW876
Flight time 1h 41m
Altitude 34000
Route KALLI7 READE MOL GEFFS J149 ROD WATSN4
Aircraft E75L/M-SDE3GILORVW/S

Departure

Time 2026-04-20 16:06
Airport Richmond International Airport (KRIC)

Arrival

Time 2026-04-20 17:47
Airport Chicago O'Hare International Airport (KORD)
Time Latitude Longitude Altitude Speed Heading
2026-04-20 15:48 37.50725 -77.33111 174 ft 0 kts 254°
2026-04-20 15:55 37.50727 -77.33098 174 ft 4 kts 252°
2026-04-20 15:56 37.50735 -77.33066 174 ft 4 kts 255°
2026-04-20 15:56 37.50743 -77.33033 174 ft 4 kts 251°
2026-04-20 15:56 37.50754 -77.33003 174 ft 4 kts 231°
2026-04-20 15:56 37.50766 -77.32993 174 ft 2 kts 123°
2026-04-20 15:57 37.50767 -77.32995 174 ft 3 kts 120°
2026-04-20 15:57 37.50766 -77.32995 174 ft 0 kts 120°
2026-04-20 15:57 37.50744 -77.32975 174 ft 7 kts 153°
2026-04-20 15:58 37.50693 -77.32955 174 ft 9 kts 177°
2026-04-20 15:58 37.50626 -77.32966 174 ft 11 kts 189°
2026-04-20 15:58 37.50545 -77.32985 174 ft 13 kts 191°
2026-04-20 15:58 37.50452 -77.33012 174 ft 15 kts 200°
2026-04-20 15:59 37.50349 -77.33056 174 ft 17 kts 197°
2026-04-20 15:59 37.50232 -77.33097 174 ft 18 kts 194°
2026-04-20 15:59 37.50105 -77.33140 173 ft 20 kts 195°
2026-04-20 15:59 37.49968 -77.33171 173 ft 20 kts 167°
2026-04-20 16:00 37.49922 -77.33132 173 ft 2 kts 96°
2026-04-20 16:00 37.49920 -77.33067 173 ft 18 kts 94°
2026-04-20 16:00 37.49891 -77.32905 172 ft 10 kts 127°
2026-04-20 16:00 37.49857 -77.32861 173 ft 11 kts 131°
2026-04-20 16:01 37.49782 -77.32746 174 ft 24 kts 133°
2026-04-20 16:01 37.49672 -77.32578 174 ft 23 kts 118°
2026-04-20 16:01 37.49668 -77.32502 174 ft 4 kts 46°
2026-04-20 16:01 37.49721 -77.32396 174 ft 25 kts 59°
2026-04-20 16:02 37.49832 -77.32190 174 ft 29 kts 53°
2026-04-20 16:02 37.49953 -77.31984 174 ft 30 kts 57°
2026-04-20 16:02 37.50061 -77.31760 174 ft 30 kts 57°
2026-04-20 16:02 37.50174 -77.31537 173 ft 27 kts 58°
2026-04-20 16:03 37.50171 -77.31455 173 ft 5 kts 147°
2026-04-20 16:03 37.50112 -77.31410 173 ft 18 kts 145°
2026-04-20 16:03 37.49959 -77.31289 173 ft 29 kts 144°
2026-04-20 16:03 37.49785 -77.31155 173 ft 30 kts 150°
2026-04-20 16:04 37.49617 -77.31011 174 ft 29 kts 153°
2026-04-20 16:04 37.49498 -77.30900 174 ft 10 kts 112°
2026-04-20 16:04 37.49498 -77.30869 174 ft 3 kts 56°
2026-04-20 16:04 37.49535 -77.30803 174 ft 18 kts 55°
2026-04-20 16:05 37.49598 -77.30727 173 ft 4 kts 359°
2026-04-20 16:05 37.49648 -77.30753 174 ft 18 kts 326°
2026-04-20 16:05 37.49988 -77.31023 172 ft 97 kts 329°
2026-04-20 16:05 37.50765 -77.31613 302 ft 153 kts 330°
2026-04-20 16:06 37.51706 -77.32314 1152 ft 155 kts 327°
2026-04-20 16:06 37.52564 -77.33247 1773 ft 173 kts 307°
2026-04-20 16:06 37.53083 -77.34681 2410 ft 187 kts 285°
2026-04-20 16:06 37.53180 -77.36344 3154 ft 193 kts 265°
2026-04-20 16:07 37.52910 -77.38013 3887 ft 195 kts 258°
2026-04-20 16:07 37.52578 -77.39697 4660 ft 201 kts 258°
2026-04-20 16:07 37.52215 -77.41507 5139 ft 225 kts 257°
2026-04-20 16:07 37.51782 -77.43475 5749 ft 241 kts 256°
2026-04-20 16:08 37.51321 -77.45547 6488 ft 248 kts 256°
2026-04-20 16:08 37.50835 -77.47660 7263 ft 253 kts 255°
2026-04-20 16:08 37.50327 -77.49789 8067 ft 255 kts 255°
2026-04-20 16:08 37.49796 -77.51938 8823 ft 260 kts 254°
2026-04-20 16:09 37.49229 -77.54106 9627 ft 262 kts 254°
2026-04-20 16:09 37.48845 -77.55543 10203 ft 260 kts 254°
2026-04-20 16:09 37.48257 -77.57749 10771 ft 270 kts 256°
2026-04-20 16:09 37.47687 -77.60041 11407 ft 277 kts 256°
2026-04-20 16:10 37.47109 -77.62349 12206 ft 276 kts 256°
2026-04-20 16:10 37.46531 -77.64641 13030 ft 275 kts 256°
2026-04-20 16:10 37.45941 -77.66940 13778 ft 276 kts 256°
2026-04-20 16:10 37.45325 -77.69241 14560 ft 279 kts 255°
2026-04-20 16:11 37.44706 -77.71561 15336 ft 279 kts 255°
2026-04-20 16:11 37.44087 -77.73891 16085 ft 283 kts 255°
2026-04-20 16:11 37.43459 -77.76242 16863 ft 283 kts 255°
2026-04-20 16:11 37.42827 -77.78601 17588 ft 286 kts 255°
2026-04-20 16:12 37.42191 -77.80977 18341 ft 287 kts 255°
2026-04-20 16:12 37.41550 -77.83371 19003 ft 290 kts 255°
2026-04-20 16:12 37.40904 -77.85787 19688 ft 293 kts 255°
2026-04-20 16:12 37.40254 -77.88208 20299 ft 296 kts 254°
2026-04-20 16:13 37.39594 -77.90666 20914 ft 298 kts 254°
2026-04-20 16:13 37.38931 -77.93143 21520 ft 301 kts 254°
2026-04-20 16:13 37.38259 -77.95643 22124 ft 303 kts 253°
2026-04-20 16:13 37.37581 -77.98161 22697 ft 305 kts 253°
2026-04-20 16:14 37.36908 -78.00667 23271 ft 308 kts 253°
2026-04-20 16:14 37.36214 -78.03236 23814 ft 312 kts 253°
2026-04-20 16:14 37.35513 -78.05829 24421 ft 314 kts 253°
2026-04-20 16:14 37.34809 -78.08436 25020 ft 316 kts 253°
2026-04-20 16:15 37.34102 -78.11051 25596 ft 318 kts 253°
2026-04-20 16:15 37.33388 -78.13684 26161 ft 318 kts 253°
2026-04-20 16:15 37.32667 -78.16348 26363 ft 329 kts 253°
2026-04-20 16:15 37.31927 -78.19079 26817 ft 331 kts 253°
2026-04-20 16:16 37.31182 -78.21827 27263 ft 334 kts 253°
2026-04-20 16:16 37.30428 -78.24597 27680 ft 337 kts 253°
2026-04-20 16:16 37.29696 -78.27407 28019 ft 339 kts 258°
2026-04-20 16:16 37.29450 -78.30322 28564 ft 337 kts 270°
2026-04-20 16:17 37.29771 -78.33253 28941 ft 343 kts 281°
2026-04-20 16:17 37.30655 -78.36068 29337 ft 352 kts 292°
2026-04-20 16:17 37.32097 -78.38617 29617 ft 366 kts 304°
2026-04-20 16:17 37.33850 -78.40964 29931 ft 370 kts 305°
2026-04-20 16:18 37.35633 -78.43311 30245 ft 373 kts 305°
2026-04-20 16:18 37.37455 -78.45664 30511 ft 377 kts 306°
2026-04-20 16:18 37.39309 -78.48032 30735 ft 382 kts 307°
2026-04-20 16:18 37.41197 -78.50412 30959 ft 386 kts 307°
2026-04-20 16:19 37.43104 -78.52804 31253 ft 388 kts 307°
2026-04-20 16:19 37.45026 -78.55210 31509 ft 391 kts 307°
2026-04-20 16:19 37.46967 -78.57632 31760 ft 394 kts 308°
2026-04-20 16:19 37.48925 -78.60067 32001 ft 397 kts 308°
2026-04-20 16:20 37.50896 -78.62515 32256 ft 399 kts 308°
2026-04-20 16:20 37.52885 -78.64977 32462 ft 402 kts 308°
2026-04-20 16:20 37.54883 -78.67450 32709 ft 403 kts 309°
2026-04-20 16:20 37.56892 -78.69932 32972 ft 404 kts 309°
2026-04-20 16:21 37.58902 -78.72412 33252 ft 404 kts 309°
2026-04-20 16:21 37.60910 -78.74895 33543 ft 404 kts 309°
2026-04-20 16:21 37.62917 -78.77372 33825 ft 404 kts 309°
2026-04-20 16:21 37.64928 -78.79849 34114 ft 404 kts 309°
2026-04-20 16:22 37.66894 -78.82264 34281 ft 397 kts 309°
2026-04-20 16:22 37.68894 -78.84697 34257 ft 402 kts 310°
2026-04-20 16:22 37.72936 -78.89614 34251 ft 404 kts 310°
2026-04-20 16:23 37.76980 -78.94550 34270 ft 405 kts 310°
2026-04-20 16:23 37.81027 -78.99492 34277 ft 404 kts 310°
2026-04-20 16:24 37.85052 -79.04414 34229 ft 400 kts 310°
2026-04-20 16:24 37.89034 -79.09301 34331 ft 395 kts 310°
2026-04-20 16:25 37.92684 -79.14500 34329 ft 397 kts 305°
2026-04-20 16:25 37.96249 -79.19837 34253 ft 396 kts 305°
2026-04-20 16:26 37.99808 -79.25180 34249 ft 397 kts 305°
2026-04-20 16:26 38.03379 -79.30552 34239 ft 400 kts 305°
2026-04-20 16:27 38.06958 -79.35948 34238 ft 398 kts 305°
2026-04-20 16:27 38.10497 -79.41293 34237 ft 398 kts 305°
2026-04-20 16:28 38.14056 -79.46677 34246 ft 398 kts 305°
2026-04-20 16:28 38.17607 -79.52061 34253 ft 397 kts 305°
2026-04-20 16:29 38.21154 -79.57446 34241 ft 397 kts 305°
2026-04-20 16:29 38.24690 -79.62823 34252 ft 396 kts 305°
2026-04-20 16:30 38.28226 -79.68206 34251 ft 396 kts 305°
2026-04-20 16:30 38.31754 -79.73589 34258 ft 396 kts 305°
2026-04-20 16:31 38.35278 -79.78977 34253 ft 396 kts 305°
2026-04-20 16:31 38.38803 -79.84371 34270 ft 396 kts 305°
2026-04-20 16:32 38.42324 -79.89770 34274 ft 396 kts 305°
2026-04-20 16:32 38.45843 -79.95173 34292 ft 396 kts 305°
2026-04-20 16:33 38.49367 -80.00593 34286 ft 397 kts 305°
2026-04-20 16:33 38.52884 -80.06011 34313 ft 395 kts 305°
2026-04-20 16:34 38.56393 -80.11434 34305 ft 396 kts 305°
2026-04-20 16:34 38.59911 -80.16867 34281 ft 396 kts 305°
2026-04-20 16:35 38.63428 -80.22312 34305 ft 398 kts 305°
2026-04-20 16:35 38.66944 -80.27771 34300 ft 399 kts 305°
2026-04-20 16:36 38.70460 -80.33232 34334 ft 399 kts 305°
2026-04-20 16:36 38.73986 -80.38724 34330 ft 400 kts 305°
2026-04-20 16:37 38.77517 -80.44235 34330 ft 400 kts 305°
2026-04-20 16:37 38.81055 -80.49739 34336 ft 399 kts 305°
2026-04-20 16:38 38.84581 -80.55261 34332 ft 401 kts 305°
2026-04-20 16:38 38.88113 -80.60806 34345 ft 401 kts 305°
2026-04-20 16:39 38.91644 -80.66359 34324 ft 402 kts 305°
2026-04-20 16:39 38.95190 -80.71901 34339 ft 402 kts 306°
2026-04-20 16:40 38.98738 -80.77479 34352 ft 403 kts 306°
2026-04-20 16:40 39.01952 -80.83305 34390 ft 398 kts 297°
2026-04-20 16:41 39.04615 -80.89574 34343 ft 399 kts 296°
2026-04-20 16:41 39.07254 -80.95813 34352 ft 399 kts 296°
2026-04-20 16:42 39.09898 -81.02099 34355 ft 399 kts 296°
2026-04-20 16:42 39.12538 -81.08387 34367 ft 399 kts 296°
2026-04-20 16:43 39.15152 -81.14699 34370 ft 399 kts 296°
2026-04-20 16:43 39.17751 -81.21025 34381 ft 400 kts 296°
2026-04-20 16:44 39.20355 -81.27369 34376 ft 400 kts 296°
2026-04-20 16:44 39.22955 -81.33717 34397 ft 400 kts 296°
2026-04-20 16:45 39.25550 -81.40060 34387 ft 400 kts 296°
2026-04-20 16:45 39.28142 -81.46415 34388 ft 401 kts 296°
2026-04-20 16:46 39.30738 -81.52789 34389 ft 401 kts 296°
2026-04-20 16:46 39.33310 -81.59122 34387 ft 401 kts 297°
2026-04-20 16:47 39.35899 -81.65511 34386 ft 402 kts 297°
2026-04-20 16:47 39.38488 -81.71913 34381 ft 402 kts 297°
2026-04-20 16:48 39.41075 -81.78320 34386 ft 402 kts 297°
2026-04-20 16:48 39.43660 -81.84747 34387 ft 403 kts 297°
2026-04-20 16:49 39.46243 -81.91183 34383 ft 403 kts 297°
2026-04-20 16:49 39.48825 -81.97626 34388 ft 403 kts 297°
2026-04-20 16:50 39.51403 -82.04076 34389 ft 403 kts 297°
2026-04-20 16:50 39.53976 -82.10522 34387 ft 403 kts 297°
2026-04-20 16:51 39.56547 -82.16978 34393 ft 403 kts 297°
2026-04-20 16:51 39.59115 -82.23437 34398 ft 403 kts 297°
2026-04-20 16:52 39.61676 -82.29897 34412 ft 403 kts 297°
2026-04-20 16:52 39.64235 -82.36366 34404 ft 403 kts 297°
2026-04-20 16:53 39.66776 -82.42799 34407 ft 403 kts 297°
2026-04-20 16:53 39.69321 -82.49258 34413 ft 402 kts 297°
2026-04-20 16:54 39.71859 -82.55718 34416 ft 402 kts 297°
2026-04-20 16:54 39.74395 -82.62180 34418 ft 401 kts 297°
2026-04-20 16:55 39.76924 -82.68641 34415 ft 400 kts 297°
2026-04-20 16:55 39.79443 -82.75089 34415 ft 400 kts 297°
2026-04-20 16:56 39.81957 -82.81540 34414 ft 399 kts 297°
2026-04-20 16:56 39.84459 -82.87976 34423 ft 399 kts 297°
2026-04-20 16:57 39.86959 -82.94412 34423 ft 399 kts 297°
2026-04-20 16:57 39.89450 -83.00839 34410 ft 397 kts 297°
2026-04-20 16:58 39.91934 -83.07267 34414 ft 397 kts 297°
2026-04-20 16:58 39.93993 -83.12604 34413 ft 396 kts 297°
2026-04-20 16:59 39.96465 -83.19024 34414 ft 396 kts 297°
2026-04-20 16:59 39.98929 -83.25451 34415 ft 396 kts 298°
2026-04-20 17:00 40.02623 -83.35105 34413 ft 398 kts 298°
2026-04-20 17:01 40.05096 -83.41576 34415 ft 398 kts 298°
2026-04-20 17:01 40.07563 -83.48047 34413 ft 397 kts 298°
2026-04-20 17:02 40.10022 -83.54508 34405 ft 397 kts 298°
2026-04-20 17:02 40.12471 -83.60967 34409 ft 396 kts 298°
2026-04-20 17:03 40.14912 -83.67424 34404 ft 396 kts 298°
2026-04-20 17:03 40.17352 -83.73886 34406 ft 396 kts 298°
2026-04-20 17:04 40.19777 -83.80304 34402 ft 396 kts 298°
2026-04-20 17:04 40.22208 -83.86772 34404 ft 395 kts 298°
2026-04-20 17:05 40.24628 -83.93224 34405 ft 395 kts 298°
2026-04-20 17:05 40.27045 -83.99687 34415 ft 395 kts 298°
2026-04-20 17:06 40.29815 -84.05855 34427 ft 393 kts 309°
2026-04-20 17:06 40.33213 -84.11477 34418 ft 393 kts 309°
2026-04-20 17:07 40.36622 -84.17081 34410 ft 393 kts 309°
2026-04-20 17:07 40.40037 -84.22677 34413 ft 393 kts 309°
2026-04-20 17:08 40.43450 -84.28272 34413 ft 393 kts 309°
2026-04-20 17:08 40.46859 -84.33869 34411 ft 392 kts 309°
2026-04-20 17:09 40.50262 -84.39461 34414 ft 392 kts 309°
2026-04-20 17:09 40.53665 -84.45058 34413 ft 392 kts 309°
2026-04-20 17:10 40.57063 -84.50663 34412 ft 392 kts 309°
2026-04-20 17:10 40.60460 -84.56270 34411 ft 392 kts 309°
2026-04-20 17:11 40.63851 -84.61883 34414 ft 392 kts 309°
2026-04-20 17:11 40.67240 -84.67500 34413 ft 391 kts 309°
2026-04-20 17:12 40.70620 -84.73115 34413 ft 391 kts 309°
2026-04-20 17:12 40.73996 -84.78732 34412 ft 390 kts 309°
2026-04-20 17:13 40.77347 -84.84315 34414 ft 391 kts 310°
2026-04-20 17:13 40.80719 -84.89945 34413 ft 391 kts 310°
2026-04-20 17:14 40.84085 -84.95575 34413 ft 390 kts 310°
2026-04-20 17:14 40.87440 -85.01195 34431 ft 390 kts 310°
2026-04-20 17:15 40.90794 -85.06829 34422 ft 390 kts 310°
2026-04-20 17:15 40.94142 -85.12462 34424 ft 390 kts 310°
2026-04-20 17:16 40.97491 -85.18103 34422 ft 390 kts 310°
2026-04-20 17:16 41.01054 -85.23494 34429 ft 389 kts 314°
2026-04-20 17:17 41.04730 -85.28751 34422 ft 389 kts 314°
2026-04-20 17:17 41.08392 -85.34038 34423 ft 389 kts 314°
2026-04-20 17:18 41.12016 -85.39294 34424 ft 388 kts 314°
2026-04-20 17:18 41.15654 -85.44585 34425 ft 388 kts 314°
2026-04-20 17:18 41.17295 -85.47428 34436 ft 391 kts 303°
2026-04-20 17:19 41.18410 -85.50743 34434 ft 397 kts 294°
2026-04-20 17:19 41.20167 -85.57715 34414 ft 398 kts 293°
2026-04-20 17:20 41.21865 -85.64650 34411 ft 397 kts 293°
2026-04-20 17:20 41.23573 -85.71692 34415 ft 398 kts 293°
2026-04-20 17:21 41.25245 -85.78659 34415 ft 398 kts 292°
2026-04-20 17:21 41.26816 -85.85730 34422 ft 404 kts 285°
2026-04-20 17:22 41.27486 -85.93198 34415 ft 406 kts 283°
2026-04-20 17:22 41.28103 -86.00667 34413 ft 407 kts 283°
2026-04-20 17:23 41.28821 -86.08079 34415 ft 402 kts 286°
2026-04-20 17:23 41.29709 -86.15353 33977 ft 387 kts 286°
2026-04-20 17:23 41.30120 -86.18818 33661 ft 374 kts 286°
2026-04-20 17:24 41.30523 -86.22205 33104 ft 367 kts 287°
2026-04-20 17:24 41.30914 -86.25519 32620 ft 359 kts 287°
2026-04-20 17:24 41.31292 -86.28761 32144 ft 351 kts 288°
2026-04-20 17:24 41.31661 -86.31934 31681 ft 344 kts 288°
2026-04-20 17:25 41.32023 -86.35054 31231 ft 339 kts 289°
2026-04-20 17:25 41.32384 -86.38146 30799 ft 338 kts 289°
2026-04-20 17:25 41.32749 -86.41252 30342 ft 341 kts 289°
2026-04-20 17:25 41.33117 -86.44380 29864 ft 343 kts 290°
2026-04-20 17:26 41.33478 -86.47521 29425 ft 345 kts 289°
2026-04-20 17:26 41.33841 -86.50688 28976 ft 347 kts 289°
2026-04-20 17:26 41.34327 -86.53811 28518 ft 341 kts 297°
2026-04-20 17:26 41.35267 -86.56671 28070 ft 337 kts 303°
2026-04-20 17:27 41.36309 -86.59464 27601 ft 336 kts 303°
2026-04-20 17:27 41.37351 -86.62231 27165 ft 334 kts 303°
2026-04-20 17:27 41.38390 -86.64991 26716 ft 333 kts 303°
2026-04-20 17:27 41.39586 -86.67578 26284 ft 324 kts 314°
2026-04-20 17:28 41.41224 -86.69585 25866 ft 319 kts 326°
2026-04-20 17:28 41.43147 -86.71042 25437 ft 319 kts 332°
2026-04-20 17:28 41.45121 -86.72391 24988 ft 318 kts 332°
2026-04-20 17:28 41.47088 -86.73731 24565 ft 317 kts 332°
2026-04-20 17:29 41.49052 -86.75066 24140 ft 316 kts 332°
2026-04-20 17:29 41.51011 -86.76395 23723 ft 316 kts 332°
2026-04-20 17:29 41.53005 -86.77588 23307 ft 315 kts 340°
2026-04-20 17:29 41.55169 -86.78134 22651 ft 321 kts 349°
2026-04-20 17:30 41.57405 -86.78400 22065 ft 318 kts 350°
2026-04-20 17:30 41.59580 -86.78647 21632 ft 311 kts 350°
2026-04-20 17:30 41.61720 -86.78884 21245 ft 307 kts 350°
2026-04-20 17:30 41.63853 -86.79117 20822 ft 308 kts 350°
2026-04-20 17:31 41.65986 -86.79350 20433 ft 307 kts 350°
2026-04-20 17:31 41.68109 -86.79613 20013 ft 306 kts 349°
2026-04-20 17:31 41.70223 -86.79898 19615 ft 304 kts 349°
2026-04-20 17:31 41.72322 -86.80176 19210 ft 303 kts 349°
2026-04-20 17:32 41.74415 -86.80449 18807 ft 301 kts 349°
2026-04-20 17:32 41.76500 -86.80718 18407 ft 300 kts 349°
2026-04-20 17:32 41.78571 -86.81006 18000 ft 298 kts 347°
2026-04-20 17:32 41.80599 -86.81481 17614 ft 295 kts 345°
2026-04-20 17:33 41.82615 -86.81977 17222 ft 294 kts 346°
2026-04-20 17:33 41.84624 -86.82462 16833 ft 292 kts 344°
2026-04-20 17:33 41.86513 -86.83377 16445 ft 288 kts 330°
2026-04-20 17:33 41.88124 -86.84894 16072 ft 286 kts 321°
2026-04-20 17:34 41.89667 -86.86584 15689 ft 286 kts 321°
2026-04-20 17:34 41.91203 -86.88273 15319 ft 285 kts 321°
2026-04-20 17:34 41.92729 -86.89958 14937 ft 284 kts 321°
2026-04-20 17:34 41.94080 -86.91840 14532 ft 279 kts 304°
2026-04-20 17:35 41.94702 -86.94278 14188 ft 277 kts 286°
2026-04-20 17:35 41.95004 -86.96813 13787 ft 273 kts 285°
2026-04-20 17:35 41.95291 -86.99306 13439 ft 267 kts 284°
2026-04-20 17:35 41.95571 -87.01744 13086 ft 262 kts 284°
2026-04-20 17:36 41.95842 -87.04149 12727 ft 259 kts 284°
2026-04-20 17:36 41.96107 -87.06533 12398 ft 257 kts 284°
2026-04-20 17:36 41.96371 -87.08909 12064 ft 257 kts 284°
2026-04-20 17:36 41.96633 -87.11281 11725 ft 257 kts 284°
2026-04-20 17:37 41.96896 -87.13658 11382 ft 258 kts 283°
2026-04-20 17:37 41.97160 -87.16053 11037 ft 260 kts 283°
2026-04-20 17:37 41.97420 -87.18465 10662 ft 261 kts 282°
2026-04-20 17:37 41.97680 -87.20889 10339 ft 263 kts 282°
2026-04-20 17:38 41.97943 -87.23320 9989 ft 264 kts 281°
2026-04-20 17:38 41.98207 -87.25764 9640 ft 265 kts 281°
2026-04-20 17:38 41.98471 -87.28216 9290 ft 266 kts 280°
2026-04-20 17:38 41.98734 -87.30672 8933 ft 264 kts 279°
2026-04-20 17:39 41.98801 -87.33123 8584 ft 262 kts 270°
2026-04-20 17:39 41.98769 -87.35554 8235 ft 259 kts 271°
2026-04-20 17:39 41.98761 -87.37961 7889 ft 256 kts 271°
2026-04-20 17:39 41.98756 -87.40342 7550 ft 254 kts 271°
2026-04-20 17:40 41.98756 -87.42703 7141 ft 254 kts 271°
2026-04-20 17:40 41.98758 -87.45061 6610 ft 248 kts 271°
2026-04-20 17:40 41.98763 -87.47341 6085 ft 241 kts 271°
2026-04-20 17:40 41.98767 -87.49558 5570 ft 234 kts 271°
2026-04-20 17:41 41.98771 -87.51725 5054 ft 230 kts 270°
2026-04-20 17:41 41.98777 -87.53854 4566 ft 226 kts 270°
2026-04-20 17:41 41.98783 -87.55960 4058 ft 224 kts 270°
2026-04-20 17:41 41.98791 -87.58047 3557 ft 223 kts 269°
2026-04-20 17:42 41.98796 -87.60119 3055 ft 221 kts 269°
2026-04-20 17:42 41.98799 -87.62180 2552 ft 220 kts 269°
2026-04-20 17:42 41.98804 -87.64225 2196 ft 213 kts 269°
2026-04-20 17:42 41.98814 -87.66161 2263 ft 207 kts 269°
2026-04-20 17:43 41.98813 -87.67451 2278 ft 210 kts 269°
2026-04-20 17:43 41.98814 -87.69418 2312 ft 210 kts 269°
2026-04-20 17:43 41.98818 -87.71358 2352 ft 202 kts 269°
2026-04-20 17:43 41.98821 -87.73213 2206 ft 196 kts 269°
2026-04-20 17:44 41.98826 -87.74987 2136 ft 184 kts 268°
2026-04-20 17:44 41.98825 -87.76683 2111 ft 181 kts 268°
2026-04-20 17:44 41.98828 -87.78363 2278 ft 180 kts 268°
2026-04-20 17:44 41.98831 -87.80095 1878 ft 188 kts 268°
2026-04-20 17:45 41.98832 -87.81756 1889 ft 173 kts 268°
2026-04-20 17:45 41.98827 -87.83386 1545 ft 173 kts 268°
2026-04-20 17:45 41.98832 -87.84926 1283 ft 155 kts 269°
2026-04-20 17:45 41.98832 -87.86318 1092 ft 145 kts 268°
2026-04-20 17:46 41.98831 -87.87672 894 ft 144 kts 267°
2026-04-20 17:46 41.98821 -87.89003 709 ft 141 kts 270°
2026-04-20 17:46 41.98825 -87.90234 667 ft 115 kts 270°
2026-04-20 17:46 41.98823 -87.91083 667 ft 73 kts 274°
2026-04-20 17:47 41.98819 -87.91656 666 ft 54 kts 262°
2026-04-20 17:47 41.98719 -87.91944 666 ft 8 kts 175°